TAM1457 SBUL-SBCF

Flight info

Callsign TAM1457
Flight time 0h 43m
Altitude 31000
Route ISRIK DCT VULAD
Aircraft A319/M-SDE3FGHIRWY/LB1

Departure

Time 2026-05-08 21:18
Airport Ten. Cel. Aviador César Bombonato Airport (SBUL)

Arrival

Time 2026-05-08 22:01
Airport Tancredo Neves International Airport (SBCF)
Time Latitude Longitude Altitude Speed Heading
2026-05-08 20:52 -18.89003 -48.23041 3108 ft 0 kts 291°
2026-05-08 21:07 -18.89009 -48.23023 3108 ft 4 kts 290°
2026-05-08 21:07 -18.89015 -48.23008 3108 ft 2 kts 331°
2026-05-08 21:08 -18.89026 -48.23005 3108 ft 2 kts 19°
2026-05-08 21:08 -18.89036 -48.23009 3108 ft 2 kts 23°
2026-05-08 21:08 -18.89041 -48.23011 3107 ft 0 kts 23°
2026-05-08 21:11 -18.89038 -48.23010 3107 ft 0 kts 23°
2026-05-08 21:13 -18.89037 -48.23010 3107 ft 1 kts 22°
2026-05-08 21:13 -18.89028 -48.23005 3107 ft 1 kts 47°
2026-05-08 21:13 -18.89029 -48.22991 3107 ft 0 kts 105°
2026-05-08 21:15 -18.89029 -48.22990 3107 ft 0 kts 105°
2026-05-08 21:15 -18.89033 -48.22978 3107 ft 4 kts 112°
2026-05-08 21:15 -18.89051 -48.22933 3106 ft 8 kts 114°
2026-05-08 21:16 -18.89099 -48.22915 3106 ft 9 kts 205°
2026-05-08 21:16 -18.89165 -48.22920 3106 ft 10 kts 174°
2026-05-08 21:16 -18.89219 -48.22944 3106 ft 9 kts 274°
2026-05-08 21:16 -18.89165 -48.22946 3106 ft 9 kts 22°
2026-05-08 21:17 -18.89149 -48.22938 3106 ft 0 kts 23°
2026-05-08 21:18 -18.88962 -48.22855 3107 ft 68 kts 22°
2026-05-08 21:18 -18.88290 -48.22559 3110 ft 139 kts 23°
2026-05-08 21:18 -18.87320 -48.22114 3608 ft 150 kts 23°
2026-05-08 21:18 -18.86370 -48.21663 4407 ft 150 kts 29°
2026-05-08 21:19 -18.85684 -48.20820 5042 ft 163 kts 65°
2026-05-08 21:19 -18.85704 -48.19525 5459 ft 193 kts 103°
2026-05-08 21:19 -18.86110 -48.18133 5717 ft 211 kts 104°
2026-05-08 21:19 -18.86573 -48.16565 5968 ft 232 kts 104°
2026-05-08 21:20 -18.87079 -48.14839 6276 ft 258 kts 105°
2026-05-08 21:20 -18.87629 -48.12948 6701 ft 280 kts 104°
2026-05-08 21:20 -18.88211 -48.10952 7409 ft 288 kts 105°
2026-05-08 21:20 -18.88806 -48.08906 8177 ft 294 kts 105°
2026-05-08 21:21 -18.89409 -48.06824 9021 ft 298 kts 105°
2026-05-08 21:21 -18.90018 -48.04715 9859 ft 303 kts 105°
2026-05-08 21:21 -18.90633 -48.02575 10375 ft 318 kts 105°
2026-05-08 21:21 -18.91302 -48.00237 10713 ft 337 kts 105°
2026-05-08 21:22 -18.91979 -47.97873 11329 ft 344 kts 105°
2026-05-08 21:22 -18.92675 -47.95442 12028 ft 348 kts 105°
2026-05-08 21:22 -18.93377 -47.92987 12760 ft 351 kts 105°
2026-05-08 21:22 -18.94085 -47.90509 13459 ft 354 kts 105°
2026-05-08 21:23 -18.94799 -47.88009 14099 ft 357 kts 105°
2026-05-08 21:23 -18.95519 -47.85489 14695 ft 360 kts 105°
2026-05-08 21:23 -18.96243 -47.82944 15279 ft 363 kts 105°
2026-05-08 21:23 -18.96971 -47.80377 15850 ft 366 kts 105°
2026-05-08 21:24 -18.97708 -47.77790 16417 ft 369 kts 105°
2026-05-08 21:24 -18.98445 -47.75216 16964 ft 372 kts 105°
2026-05-08 21:24 -18.99209 -47.72551 17529 ft 376 kts 105°
2026-05-08 21:24 -18.99966 -47.69898 18070 ft 379 kts 105°
2026-05-08 21:25 -19.00718 -47.67257 18551 ft 382 kts 105°
2026-05-08 21:25 -19.01495 -47.64525 19007 ft 385 kts 105°
2026-05-08 21:25 -19.02269 -47.61800 19456 ft 389 kts 105°
2026-05-08 21:25 -19.03048 -47.59050 19914 ft 392 kts 105°
2026-05-08 21:26 -19.03833 -47.56277 20369 ft 395 kts 105°
2026-05-08 21:26 -19.04623 -47.53484 20837 ft 399 kts 105°
2026-05-08 21:26 -19.05424 -47.50660 21296 ft 402 kts 105°
2026-05-08 21:26 -19.06229 -47.47817 21746 ft 405 kts 105°
2026-05-08 21:27 -19.07041 -47.44949 22184 ft 409 kts 105°
2026-05-08 21:27 -19.07858 -47.42060 22624 ft 412 kts 105°
2026-05-08 21:27 -19.08670 -47.39180 23063 ft 416 kts 106°
2026-05-08 21:27 -19.09503 -47.36238 23502 ft 419 kts 106°
2026-05-08 21:28 -19.10344 -47.33274 23894 ft 422 kts 106°
2026-05-08 21:28 -19.11190 -47.30289 24268 ft 425 kts 106°
2026-05-08 21:28 -19.12041 -47.27282 24635 ft 428 kts 106°
2026-05-08 21:28 -19.12891 -47.24258 24998 ft 431 kts 106°
2026-05-08 21:29 -19.13746 -47.21199 25357 ft 434 kts 106°
2026-05-08 21:29 -19.14606 -47.18133 25713 ft 437 kts 106°
2026-05-08 21:29 -19.15322 -47.14999 26065 ft 440 kts 98°
2026-05-08 21:29 -19.15560 -47.11811 26410 ft 442 kts 90°
2026-05-08 21:30 -19.15579 -47.08549 26763 ft 445 kts 90°
2026-05-08 21:30 -19.15601 -47.05218 27133 ft 448 kts 90°
2026-05-08 21:30 -19.15627 -47.01955 27479 ft 451 kts 90°
2026-05-08 21:30 -19.15655 -46.98626 27824 ft 454 kts 90°
2026-05-08 21:31 -19.15683 -46.95276 28182 ft 457 kts 90°
2026-05-08 21:31 -19.15709 -46.91909 28530 ft 460 kts 90°
2026-05-08 21:31 -19.15738 -46.88514 28878 ft 463 kts 90°
2026-05-08 21:31 -19.15768 -46.85097 29226 ft 466 kts 90°
2026-05-08 21:32 -19.15795 -46.81658 29560 ft 469 kts 90°
2026-05-08 21:32 -19.15819 -46.78193 29911 ft 472 kts 90°
2026-05-08 21:32 -19.15840 -46.74717 30225 ft 475 kts 90°
2026-05-08 21:32 -19.15860 -46.71213 30509 ft 478 kts 90°
2026-05-08 21:33 -19.15878 -46.67690 30800 ft 480 kts 90°
2026-05-08 21:33 -19.15896 -46.64149 31085 ft 483 kts 90°
2026-05-08 21:33 -19.15918 -46.60590 31373 ft 485 kts 91°
2026-05-08 21:33 -19.15940 -46.57013 31655 ft 487 kts 90°
2026-05-08 21:34 -19.15960 -46.53474 32006 ft 487 kts 90°
2026-05-08 21:34 -19.15978 -46.49888 32408 ft 487 kts 90°
2026-05-08 21:34 -19.15998 -46.46309 32808 ft 486 kts 91°
2026-05-08 21:34 -19.16020 -46.42734 33207 ft 486 kts 91°
2026-05-08 21:35 -19.16039 -46.39162 33608 ft 486 kts 91°
2026-05-08 21:35 -19.16061 -46.35599 34011 ft 485 kts 91°
2026-05-08 21:35 -19.16080 -46.32033 34376 ft 485 kts 91°
2026-05-08 21:35 -19.16097 -46.28470 34717 ft 484 kts 91°
2026-05-08 21:36 -19.16114 -46.24957 35068 ft 483 kts 91°
2026-05-08 21:36 -19.16128 -46.21403 35402 ft 483 kts 91°
2026-05-08 21:36 -19.16137 -46.17858 35704 ft 483 kts 91°
2026-05-08 21:36 -19.16144 -46.14308 35988 ft 483 kts 91°
2026-05-08 21:37 -19.16151 -46.10765 36080 ft 480 kts 91°
2026-05-08 21:37 -19.16169 -46.03739 36245 ft 477 kts 91°
2026-05-08 21:37 -19.16180 -46.00232 36128 ft 477 kts 91°
2026-05-08 21:38 -19.16167 -45.96691 35246 ft 487 kts 90°
2026-05-08 21:38 -19.16042 -45.93136 34973 ft 480 kts 88°
2026-05-08 21:38 -19.15836 -45.89617 34505 ft 478 kts 86°
2026-05-08 21:38 -19.15579 -45.86114 34020 ft 477 kts 85°
2026-05-08 21:39 -19.15315 -45.82675 33510 ft 474 kts 85°
2026-05-08 21:39 -19.15054 -45.79162 33028 ft 471 kts 86°
2026-05-08 21:39 -19.14821 -45.75771 32558 ft 468 kts 86°
2026-05-08 21:39 -19.14607 -45.72352 32080 ft 464 kts 86°
2026-05-08 21:40 -19.14409 -45.68958 31625 ft 461 kts 87°
2026-05-08 21:40 -19.14222 -45.65596 31166 ft 457 kts 87°
2026-05-08 21:40 -19.14028 -45.62250 30716 ft 454 kts 86°
2026-05-08 21:41 -19.13623 -45.55639 29803 ft 447 kts 86°
2026-05-08 21:41 -19.13415 -45.52380 29396 ft 441 kts 86°
2026-05-08 21:41 -19.13211 -45.49160 28975 ft 436 kts 86°
2026-05-08 21:41 -19.13014 -45.46020 28590 ft 431 kts 86°
2026-05-08 21:42 -19.12820 -45.42871 28199 ft 427 kts 86°
2026-05-08 21:42 -19.12625 -45.39756 27797 ft 423 kts 86°
2026-05-08 21:42 -19.12429 -45.36668 27400 ft 419 kts 86°
2026-05-08 21:42 -19.12241 -45.33609 27003 ft 416 kts 86°
2026-05-08 21:43 -19.12053 -45.30568 26599 ft 413 kts 86°
2026-05-08 21:43 -19.11867 -45.27554 26200 ft 410 kts 86°
2026-05-08 21:43 -19.11674 -45.24552 25789 ft 408 kts 85°
2026-05-08 21:43 -19.11480 -45.21562 25366 ft 407 kts 85°
2026-05-08 21:44 -19.11285 -45.18583 24945 ft 405 kts 85°
2026-05-08 21:44 -19.11092 -45.15620 24507 ft 404 kts 85°
2026-05-08 21:44 -19.10906 -45.12665 24088 ft 402 kts 85°
2026-05-08 21:44 -19.10724 -45.09738 23698 ft 398 kts 85°
2026-05-08 21:45 -19.10543 -45.06869 23334 ft 393 kts 85°
2026-05-08 21:45 -19.10357 -45.03997 22878 ft 390 kts 85°
2026-05-08 21:45 -19.10169 -45.01138 22349 ft 387 kts 85°
2026-05-08 21:45 -19.09987 -44.98323 21851 ft 380 kts 85°
2026-05-08 21:46 -19.09810 -44.95574 21432 ft 371 kts 85°
2026-05-08 21:46 -19.09632 -44.92871 21015 ft 366 kts 85°
2026-05-08 21:46 -19.09461 -44.90204 20602 ft 363 kts 85°
2026-05-08 21:46 -19.09285 -44.87553 20192 ft 360 kts 85°
2026-05-08 21:47 -19.09111 -44.84923 19779 ft 357 kts 85°
2026-05-08 21:47 -19.08941 -44.82311 19373 ft 355 kts 85°
2026-05-08 21:47 -19.08772 -44.79752 18972 ft 352 kts 85°
2026-05-08 21:47 -19.08602 -44.77174 18566 ft 351 kts 85°
2026-05-08 21:48 -19.08432 -44.74608 18132 ft 349 kts 85°
2026-05-08 21:48 -19.08269 -44.72064 17711 ft 346 kts 86°
2026-05-08 21:48 -19.08512 -44.69551 17282 ft 345 kts 104°
2026-05-08 21:48 -19.09495 -44.67252 16879 ft 344 kts 122°
2026-05-08 21:49 -19.10881 -44.65210 16484 ft 341 kts 125°
2026-05-08 21:49 -19.12281 -44.63191 16091 ft 339 kts 125°
2026-05-08 21:49 -19.13673 -44.61195 15700 ft 336 kts 125°
2026-05-08 21:49 -19.15056 -44.59210 15321 ft 334 kts 124°
2026-05-08 21:50 -19.16407 -44.57264 14944 ft 332 kts 124°
2026-05-08 21:50 -19.17768 -44.55303 14562 ft 330 kts 124°
2026-05-08 21:50 -19.19119 -44.53355 14184 ft 328 kts 124°
2026-05-08 21:50 -19.20463 -44.51411 13806 ft 326 kts 124°
2026-05-08 21:51 -19.21800 -44.49479 13400 ft 324 kts 124°
2026-05-08 21:51 -19.23137 -44.47570 13024 ft 321 kts 124°
2026-05-08 21:51 -19.24480 -44.45690 12644 ft 319 kts 125°
2026-05-08 21:51 -19.25802 -44.43854 12284 ft 317 kts 125°
2026-05-08 21:52 -19.27135 -44.42008 11923 ft 315 kts 125°
2026-05-08 21:52 -19.28476 -44.40148 11555 ft 313 kts 125°
2026-05-08 21:52 -19.29791 -44.38321 11190 ft 311 kts 125°
2026-05-08 21:52 -19.31082 -44.36527 10836 ft 310 kts 125°
2026-05-08 21:53 -19.32224 -44.34621 10477 ft 305 kts 113°
2026-05-08 21:53 -19.32966 -44.32530 10125 ft 302 kts 107°
2026-05-08 21:53 -19.33646 -44.30435 9757 ft 301 kts 107°
2026-05-08 21:53 -19.34329 -44.28349 9388 ft 299 kts 107°
2026-05-08 21:54 -19.35010 -44.26279 9059 ft 295 kts 107°
2026-05-08 21:54 -19.35628 -44.24410 8777 ft 293 kts 107°
2026-05-08 21:54 -19.36338 -44.22406 8482 ft 290 kts 114°
2026-05-08 21:54 -19.37457 -44.20656 8121 ft 286 kts 132°
2026-05-08 21:55 -19.38928 -44.19284 7808 ft 278 kts 139°
2026-05-08 21:55 -19.40404 -44.18016 7534 ft 269 kts 140°
2026-05-08 21:55 -19.41814 -44.16767 7277 ft 260 kts 138°
2026-05-08 21:56 -19.44332 -44.14445 7139 ft 224 kts 137°
2026-05-08 21:56 -19.45483 -44.13383 6896 ft 221 kts 137°
2026-05-08 21:56 -19.46638 -44.12318 6637 ft 219 kts 137°
2026-05-08 21:56 -19.47783 -44.11264 6370 ft 217 kts 137°
2026-05-08 21:57 -19.48903 -44.10231 6096 ft 212 kts 137°
2026-05-08 21:57 -19.49996 -44.09224 5803 ft 204 kts 137°
2026-05-08 21:57 -19.51045 -44.08257 5548 ft 197 kts 136°
2026-05-08 21:57 -19.52052 -44.07328 5307 ft 186 kts 136°
2026-05-08 21:58 -19.52999 -44.06456 5084 ft 173 kts 136°
2026-05-08 21:58 -19.53845 -44.05676 4876 ft 155 kts 136°
2026-05-08 21:58 -19.54634 -44.04948 4682 ft 147 kts 135°
2026-05-08 21:58 -19.55397 -44.04243 4500 ft 144 kts 135°
2026-05-08 21:59 -19.56150 -44.03548 4314 ft 143 kts 135°
2026-05-08 21:59 -19.56897 -44.02858 4134 ft 142 kts 134°
2026-05-08 21:59 -19.57640 -44.02172 3965 ft 141 kts 135°
2026-05-08 21:59 -19.58381 -44.01488 3783 ft 141 kts 135°
2026-05-08 22:00 -19.59121 -44.00804 3615 ft 140 kts 136°
2026-05-08 22:00 -19.59851 -44.00130 3431 ft 139 kts 136°
2026-05-08 22:00 -19.60573 -43.99463 3240 ft 136 kts 137°
2026-05-08 22:00 -19.61271 -43.98819 3060 ft 134 kts 139°
2026-05-08 22:01 -19.61970 -43.98173 2881 ft 132 kts 139°
2026-05-08 22:01 -19.62659 -43.97539 2763 ft 126 kts 139°
2026-05-08 22:01 -19.63224 -43.97017 2752 ft 85 kts 138°
2026-05-08 22:01 -19.63498 -43.96758 2751 ft 24 kts 135°
2026-05-08 22:02 -19.63583 -43.96619 2753 ft 24 kts 108°
2026-05-08 22:02 -19.63614 -43.96516 2803 ft 12 kts 108°
2026-05-08 22:02 -19.63642 -43.96429 2803 ft 13 kts 108°
2026-05-08 22:02 -19.63598 -43.96354 2805 ft 14 kts 25°
2026-05-08 22:03 -19.63512 -43.96301 2805 ft 15 kts 27°
2026-05-08 22:03 -19.63426 -43.96319 2802 ft 16 kts 298°
2026-05-08 22:03 -19.63372 -43.96424 2803 ft 17 kts 307°
2026-05-08 22:03 -19.63286 -43.96505 2801 ft 10 kts 321°
2026-05-08 22:04 -19.63241 -43.96536 2801 ft 6 kts
2026-05-08 22:04 -19.63224 -43.96499 2801 ft 6 kts 69°
2026-05-08 22:04 -19.63212 -43.96468 2802 ft 0 kts 68°